Location: Baumgartsau
(48.4586°N, 14.0864°E)
Time: 00:06:23
(UTC+00:00)

SL-16 R/B - Pass Details

Date: 10 August 2020
Orbit: 843 x 845 km, 71.0° (Epoch: 26 September)

Event Time Altitude Azimuth Distance (km) Brightness Sun altitude
Rises 22:50:28 0° 315° (NW) 3,414 6.1 -26.2°
Reaches altitude 10° 22:54:32 10° 287° (WNW) 2,473 4.8 -26.3°
Maximum altitude 22:56:40 12° 265° (W) 2,312 4.4 -26.3°
Enters shadow 22:57:19 12° 258° (WSW) 2,326 4.4 -26.3°
